Location: Simi Valley
(34.2690°N, 118.7810°W)
Time: 15:10:45
(UTC-07:00)

SAR-Lupe-1 - Visible Passes

Search period start: 28 May 2015 00:00
Search period end: 07 June 2015 00:00
Orbit: 481 x 485 km, 98.1° (Epoch: 28 July)

Date Brightness Start Highest point End Pass type
(mag) Time Alt. Az. Time Alt. Az. Time Alt. Az.
28 May 4.5 04:25:01 10° NNE 04:28:32 60° E 04:31:46 12° S visible
29 May 6.0 04:00:45 10° NE 04:03:45 25° E 04:06:47 10° SSE visible
30 May 6.9 03:37:31 10° ENE 03:38:49 12° E 03:40:18 10° ESE visible
30 May 5.0 05:09:08 10° N 05:12:20 30° WNW 05:15:28 10° SW visible
31 May 4.0 04:44:07 10° N 04:47:41 72° WNW 04:51:13 10° SSW visible
01 Jun 5.0 04:19:31 10° NNE 04:22:58 46° E 04:26:19 11° S visible
02 Jun 6.4 03:55:26 10° NE 03:58:08 20° E 04:00:54 10° SSE visible
03 Jun 4.7 05:03:26 10° N 05:06:47 38° WNW 05:10:06 10° SW visible
04 Jun 4.0 04:38:32 10° NNE 04:42:07 88° E 04:45:41 10° SSW visible
05 Jun 5.4 04:14:04 10° NNE 04:17:22 36° E 04:20:41 10° SSE visible
06 Jun 6.7 03:50:14 10° NE 03:52:30 16° E 03:54:54 10° SE visible
